Time,TemperatureF,DewpointF,PressureIn,WindDirection,WindDirectionDegrees,WindSpeedMPH,WindSpeedGustMPH,Humidity,HourlyPrecipIn,Conditions,Clouds,dailyrainin,SoftwareType,DateUTC
2013-06-16 00:06:00,66.9,66.0,29.95,SSW,211,0.0,3.0,97,0.03,,,0.56,weatherlink.com 1.10,2013-06-16 05:06:00,
2013-06-16 00:21:00,66.8,66.0,29.94,SSW,205,4.0,4.0,97,0.02,,,0.56,weatherlink.com 1.10,2013-06-16 05:21:00,
2013-06-16 00:36:00,66.8,66.0,29.92,SW,225,5.0,7.0,98,0.01,,,0.56,weatherlink.com 1.10,2013-06-16 05:36:00,
2013-06-16 00:51:00,66.8,66.0,29.92,SW,229,3.0,7.0,98,0.00,,,0.00,weatherlink.com 1.10,2013-06-16 05:51:00,
2013-06-16 01:06:00,66.9,66.0,29.91,SW,233,7.0,13.0,98,0.00,,,0.00,weatherlink.com 1.10,2013-06-16 06:06:00,
2013-06-16 01:21:00,66.9,66.0,29.90,SSW,211,9.0,11.0,97,0.00,,,0.00,weatherlink.com 1.10,2013-06-16 06:21:00,
2013-06-16 01:36:00,66.8,66.0,29.89,WSW,242,5.0,10.0,97,0.00,,,0.00,weatherlink.com 1.10,2013-06-16 06:36:00,
2013-06-16 01:51:00,66.9,66.0,29.89,WSW,256,6.0,14.0,97,0.00,,,0.00,weatherlink.com 1.10,2013-06-16 06:51:00,
2013-06-16 02:06:00,67.1,66.0,29.90,WSW,242,8.0,14.0,96,0.00,,,0.00,weatherlink.com 1.10,2013-06-16 07:06:00,
2013-06-16 02:22:00,67.1,66.0,29.90,WSW,252,4.0,12.0,97,0.00,,,0.00,weatherlink.com 1.10,2013-06-16 07:22:00,
2013-06-16 02:37:00,67.0,66.0,29.90,WSW,242,4.0,8.0,97,0.00,,,0.00,weatherlink.com 1.10,2013-06-16 07:37:00,
2013-06-16 02:52:00,66.9,66.0,29.90,WSW,247,4.0,12.0,97,0.00,,,0.00,weatherlink.com 1.10,2013-06-16 07:52:00,
2013-06-16 03:07:00,66.9,66.0,29.90,SW,226,7.0,13.0,97,0.00,,,0.00,weatherlink.com 1.10,2013-06-16 08:07:00,
2013-06-16 03:22:00,66.8,66.0,29.90,West,260,3.0,9.0,97,0.00,,,0.00,weatherlink.com 1.10,2013-06-16 08:22:00,
2013-06-16 03:37:00,66.7,66.0,29.89,SSW,207,3.0,9.0,97,0.00,,,0.00,weatherlink.com 1.10,2013-06-16 08:37:00,
2013-06-16 03:53:00,66.7,66.0,29.90,WSW,248,1.0,5.0,97,0.00,,,0.00,weatherlink.com 1.10,2013-06-16 08:53:00,
2013-06-16 04:07:00,66.5,66.0,29.90,West,272,2.0,6.0,98,0.00,,,0.00,weatherlink.com 1.10,2013-06-16 09:07:00,
2013-06-16 04:22:00,66.3,66.0,29.91,SW,221,2.0,8.0,97,0.00,,,0.00,weatherlink.com 1.10,2013-06-16 09:22:00,
2013-06-16 04:37:00,66.3,66.0,29.92,SW,222,2.0,6.0,97,0.00,,,0.00,weatherlink.com 1.10,2013-06-16 09:37:00,
2013-06-16 04:52:00,66.2,65.0,29.92,WSW,253,2.0,5.0,97,0.00,,,0.00,weatherlink.com 1.10,2013-06-16 09:52:00,
2013-06-16 05:07:00,66.2,65.0,29.92,WSW,240,2.0,5.0,97,0.00,,,0.00,weatherlink.com 1.10,2013-06-16 10:07:00,
2013-06-16 05:22:00,66.1,65.0,29.92,West,259,2.0,3.0,97,0.00,,,0.00,weatherlink.com 1.10,2013-06-16 10:22:00,
2013-06-16 05:37:00,66.2,65.0,29.92,SSW,207,2.0,6.0,97,0.00,,,0.00,weatherlink.com 1.10,2013-06-16 10:37:00,
2013-06-16 05:52:00,66.3,66.0,29.92,SW,225,1.0,4.0,97,0.00,,,0.00,weatherlink.com 1.10,2013-06-16 10:52:00,
2013-06-16 06:07:00,66.3,66.0,29.92,SW,222,1.0,3.0,97,0.00,,,0.00,weatherlink.com 1.10,2013-06-16 11:07:00,
2013-06-16 06:22:00,66.4,66.0,29.93,WSW,243,1.0,2.0,97,0.00,,,0.00,weatherlink.com 1.10,2013-06-16 11:22:00,
2013-06-16 06:37:00,66.5,66.0,29.93,WSW,248,1.0,2.0,97,0.00,,,0.00,weatherlink.com 1.10,2013-06-16 11:37:00,
2013-06-16 06:52:00,66.7,66.0,29.94,WSW,246,2.0,3.0,97,0.00,,,0.00,weatherlink.com 1.10,2013-06-16 11:52:00,
2013-06-16 07:07:00,67.4,67.0,29.94,SSW,207,2.0,5.0,97,0.00,,,0.00,weatherlink.com 1.10,2013-06-16 12:07:00,
2013-06-16 07:22:00,68.1,67.0,29.94,SW,217,3.0,7.0,96,0.00,,,0.00,weatherlink.com 1.10,2013-06-16 12:22:00,
2013-06-16 07:37:00,68.9,68.0,29.94,WSW,243,2.0,7.0,95,0.00,,,0.00,weatherlink.com 1.10,2013-06-16 12:37:00,
2013-06-16 07:53:00,69.8,68.0,29.94,WSW,255,2.0,6.0,94,0.00,,,0.00,weatherlink.com 1.10,2013-06-16 12:53:00,
2013-06-16 08:07:00,70.3,68.0,29.94,WSW,246,2.0,6.0,92,0.00,,,0.00,weatherlink.com 1.10,2013-06-16 13:07:00,
2013-06-16 08:22:00,71.3,69.0,29.94,West,281,0.0,7.0,91,0.00,,,0.00,weatherlink.com 1.10,2013-06-16 13:22:00,
2013-06-16 08:37:00,72.6,69.0,29.94,West,269,1.0,5.0,89,0.00,,,0.00,weatherlink.com 1.10,2013-06-16 13:37:00,
2013-06-16 08:52:00,72.7,69.0,29.94,SW,233,2.0,5.0,88,0.00,,,0.00,weatherlink.com 1.10,2013-06-16 13:52:00,
2013-06-16 09:07:00,73.6,69.0,29.94,West,278,3.0,8.0,86,0.00,,,0.00,weatherlink.com 1.10,2013-06-16 14:07:00,
2013-06-16 09:22:00,74.6,70.0,29.94,SW,222,4.0,6.0,84,0.00,,,0.00,weatherlink.com 1.10,2013-06-16 14:22:00,
2013-06-16 09:37:00,75.5,70.0,29.94,South,176,4.0,11.0,82,0.00,,,0.00,weatherlink.com 1.10,2013-06-16 14:37:00,
2013-06-16 09:52:00,76.0,69.0,29.94,South,183,5.0,8.0,80,0.00,,,0.00,weatherlink.com 1.10,2013-06-16 14:52:00,
2013-06-16 10:07:00,75.5,69.0,29.93,SSE,163,4.0,7.0,81,0.00,,,0.00,weatherlink.com 1.10,2013-06-16 15:07:00,
2013-06-16 10:22:00,75.7,71.0,29.93,West,278,1.0,5.0,84,0.00,,,0.00,weatherlink.com 1.10,2013-06-16 15:22:00,
2013-06-16 10:37:00,76.3,69.0,29.93,WSW,240,1.0,5.0,79,0.00,,,0.00,weatherlink.com 1.10,2013-06-16 15:37:00,
2013-06-16 10:52:00,77.2,71.0,29.93,SE,124,0.0,3.0,80,0.00,,,0.00,weatherlink.com 1.10,2013-06-16 15:52:00,
2013-06-16 11:07:00,77.9,71.0,29.93,WNW,284,3.0,4.0,78,0.00,,,0.00,weatherlink.com 1.10,2013-06-16 16:07:00,
2013-06-16 11:22:00,78.6,71.0,29.93,West,276,0.0,8.0,77,0.00,,,0.00,weatherlink.com 1.10,2013-06-16 16:22:00,
2013-06-16 11:37:00,78.4,69.0,29.92,SSE,150,2.0,6.0,73,0.00,,,0.00,weatherlink.com 1.10,2013-06-16 16:37:00,
2013-06-16 11:52:00,79.9,71.0,29.92,NE,40,2.0,4.0,73,0.00,,,0.00,weatherlink.com 1.10,2013-06-16 16:52:00,
2013-06-16 12:07:00,79.1,71.0,29.92,SSW,204,0.0,4.0,76,0.00,,,0.00,weatherlink.com 1.10,2013-06-16 17:07:00,
2013-06-16 12:22:00,79.6,71.0,29.92,West,260,2.0,4.0,75,0.00,,,0.00,weatherlink.com 1.10,2013-06-16 17:22:00,
2013-06-16 12:37:00,79.8,71.0,29.92,West,276,0.0,3.0,74,0.00,,,0.00,weatherlink.com 1.10,2013-06-16 17:37:00,
2013-06-16 12:52:00,78.9,71.0,29.92,West,262,2.0,3.0,77,0.00,,,0.00,weatherlink.com 1.10,2013-06-16 17:52:00,
2013-06-16 13:07:00,78.0,71.0,29.92,West,262,0.0,3.0,78,0.00,,,0.00,weatherlink.com 1.10,2013-06-16 18:07:00,
2013-06-16 13:22:00,78.2,71.0,29.92,SW,224,2.0,4.0,79,0.00,,,0.00,weatherlink.com 1.10,2013-06-16 18:22:00,
2013-06-16 13:37:00,79.8,71.0,29.92,WSW,240,3.0,5.0,75,0.00,,,0.00,weatherlink.com 1.10,2013-06-16 18:37:00,
2013-06-16 13:52:00,80.5,71.0,29.92,WSW,254,3.0,7.0,72,0.00,,,0.00,weatherlink.com 1.10,2013-06-16 18:52:00,
2013-06-16 14:08:00,80.7,71.0,29.92,WSW,255,2.0,3.0,73,0.00,,,0.00,weatherlink.com 1.10,2013-06-16 19:08:00,
2013-06-16 14:23:00,80.8,71.0,29.91,WSW,249,2.0,5.0,72,0.00,,,0.00,weatherlink.com 1.10,2013-06-16 19:23:00,
2013-06-16 14:38:00,81.7,71.0,29.91,SSW,194,5.0,9.0,70,0.00,,,0.00,weatherlink.com 1.10,2013-06-16 19:38:00,
2013-06-16 14:53:00,81.2,71.0,29.91,SSE,148,3.0,4.0,71,0.00,,,0.00,weatherlink.com 1.10,2013-06-16 19:53:00,
2013-06-16 15:08:00,82.1,72.0,29.91,WSW,250,4.0,7.0,71,0.00,,,0.00,weatherlink.com 1.10,2013-06-16 20:08:00,
2013-06-16 15:23:00,82.0,73.0,29.91,WSW,253,2.0,3.0,73,0.00,,,0.00,weatherlink.com 1.10,2013-06-16 20:23:00,
2013-06-16 15:38:00,83.4,73.0,29.90,WSW,243,1.0,6.0,70,0.00,,,0.00,weatherlink.com 1.10,2013-06-16 20:38:00,
2013-06-16 15:53:00,83.3,71.0,29.90,SSW,204,1.0,4.0,67,0.00,,,0.00,weatherlink.com 1.10,2013-06-16 20:53:00,
2013-06-16 16:08:00,83.3,73.0,29.90,WSW,246,2.0,2.0,70,0.00,,,0.00,weatherlink.com 1.10,2013-06-16 21:08:00,
2013-06-16 16:23:00,82.3,72.0,29.90,WNW,297,1.0,4.0,72,0.00,,,0.00,weatherlink.com 1.10,2013-06-16 21:23:00,
2013-06-16 16:38:00,82.3,73.0,29.90,SW,233,1.0,1.0,74,0.00,,,0.00,weatherlink.com 1.10,2013-06-16 21:38:00,
2013-06-16 16:53:00,82.3,72.0,29.90,ESE,110,0.0,3.0,71,0.00,,,0.00,weatherlink.com 1.10,2013-06-16 21:53:00,
2013-06-16 17:08:00,84.2,73.0,29.89,SW,226,2.0,3.0,68,0.00,,,0.00,weatherlink.com 1.10,2013-06-16 22:08:00,
2013-06-16 17:23:00,82.8,72.0,29.89,NW,304,1.0,5.0,70,0.00,,,0.00,weatherlink.com 1.10,2013-06-16 22:23:00,
2013-06-16 17:38:00,84.0,72.0,29.89,West,264,1.0,5.0,68,0.00,,,0.00,weatherlink.com 1.10,2013-06-16 22:38:00,
2013-06-16 17:53:00,84.6,73.0,29.89,East,95,0.0,2.0,68,0.00,,,0.00,weatherlink.com 1.10,2013-06-16 22:53:00,
2013-06-16 18:08:00,84.2,73.0,29.88,WSW,248,0.0,5.0,69,0.00,,,0.00,weatherlink.com 1.10,2013-06-16 23:08:00,
2013-06-16 18:23:00,84.7,72.0,29.88,East,87,0.0,2.0,66,0.00,,,0.00,weatherlink.com 1.10,2013-06-16 23:23:00,
2013-06-16 18:38:00,84.4,72.0,29.88,WNW,299,0.0,2.0,66,0.00,,,0.00,weatherlink.com 1.10,2013-06-16 23:38:00,
2013-06-16 18:53:00,83.4,72.0,29.88,WSW,254,3.0,4.0,69,0.00,,,0.00,weatherlink.com 1.10,2013-06-16 23:53:00,
2013-06-16 19:08:00,81.6,72.0,29.88,WSW,238,2.0,3.0,73,0.00,,,0.00,weatherlink.com 1.10,2013-06-17 00:08:00,
2013-06-16 19:23:00,80.7,72.0,29.88,SW,215,0.0,2.0,74,0.00,,,0.00,weatherlink.com 1.10,2013-06-17 00:23:00,
2013-06-16 19:38:00,80.3,72.0,29.88,SW,215,0.0,1.0,75,0.00,,,0.00,weatherlink.com 1.10,2013-06-17 00:38:00,
2013-06-16 19:53:00,79.8,71.0,29.87,SW,214,0.0,0.0,75,0.00,,,0.00,weatherlink.com 1.10,2013-06-17 00:53:00,
2013-06-16 20:08:00,78.9,72.0,29.87,SW,215,0.0,0.0,80,0.00,,,0.00,weatherlink.com 1.10,2013-06-17 01:08:00,
2013-06-16 20:23:00,77.5,72.0,29.86,SW,215,0.0,0.0,82,0.00,,,0.00,weatherlink.com 1.10,2013-06-17 01:23:00,
2013-06-16 20:38:00,76.0,70.0,29.88,SW,215,0.0,0.0,82,0.00,,,0.00,weatherlink.com 1.10,2013-06-17 01:38:00,
2013-06-16 20:53:00,75.0,70.0,29.87,SW,215,0.0,0.0,85,0.00,,,0.00,weatherlink.com 1.10,2013-06-17 01:53:00,
2013-06-16 21:08:00,74.0,70.0,29.88,SW,215,0.0,0.0,88,0.00,,,0.00,weatherlink.com 1.10,2013-06-17 02:08:00,
2013-06-16 21:23:00,72.8,70.0,29.89,SW,216,0.0,0.0,92,0.00,,,0.00,weatherlink.com 1.10,2013-06-17 02:23:00,
2013-06-16 21:38:00,72.5,71.0,29.90,SW,215,0.0,0.0,95,0.00,,,0.00,weatherlink.com 1.10,2013-06-17 02:38:00,
2013-06-16 21:53:00,72.1,71.0,29.91,SW,215,0.0,0.0,95,0.00,,,0.00,weatherlink.com 1.10,2013-06-17 02:53:00,
2013-06-16 22:08:00,71.4,70.0,29.92,SW,215,0.0,0.0,95,0.00,,,0.00,weatherlink.com 1.10,2013-06-17 03:08:00,
2013-06-16 22:23:00,71.0,70.0,29.92,SW,215,0.0,1.0,96,0.00,,,0.00,weatherlink.com 1.10,2013-06-17 03:23:00,
2013-06-16 22:38:00,71.0,70.0,29.92,SW,215,0.0,0.0,97,0.00,,,0.00,weatherlink.com 1.10,2013-06-17 03:38:00,
2013-06-16 22:53:00,70.6,70.0,29.91,SW,215,0.0,0.0,97,0.00,,,0.00,weatherlink.com 1.10,2013-06-17 03:53:00,
2013-06-16 23:08:00,70.5,70.0,29.91,SW,215,0.0,0.0,98,0.00,,,0.00,weatherlink.com 1.10,2013-06-17 04:08:00,
2013-06-16 23:23:00,69.8,69.0,29.93,SW,215,0.0,1.0,97,0.00,,,0.00,weatherlink.com 1.10,2013-06-17 04:23:00,
2013-06-16 23:38:00,69.2,68.0,29.92,SW,215,0.0,0.0,97,0.00,,,0.00,weatherlink.com 1.10,2013-06-17 04:38:00,
2013-06-16 23:53:00,69.0,69.0,29.92,SW,215,0.0,0.0,98,0.00,,,0.00,weatherlink.com 1.10,2013-06-17 04:53:00,